[ ตารางข้อมูล ] [ Min-Max ] [ วันนี้4 ] [ วันนี้2 ] [ เทียบ3วัน A ] [ เทียบ4วัน B ]   

วันนี้2   [ ◀ ช่วงเก่ากว่า ] [ ช่วงที่ 243 ] [ ช่วงใหม่กว่า ▶ ] [ ล่าสุด ]    [ 3 ชั่วโมง ] [ 6 ชั่วโมง ] [ 12 ชั่วโมง ] [ 24 ชั่วโมง ]   วันนี้2

อุณภูมิตู้ Knockdown4529  ราย 3 ชั่วโมง  ที่วัดได้ ในช่วงวันเวลา 06/04/2026 (09:13) ถึง 06/04/2026 (12:13) 
ความชื้นในตู้ Knockdown4529  ราย 3 ชั่วโมง  ที่วัดได้ ในช่วงวันเวลา 06/04/2026 (09:13) ถึง 06/04/2026 (12:13) 

 
DS18B20SHTC3 
IDDate d/m/Y & Timedata1
สูง
data2
ต่ำ
data3
นอก
temp
pcb
hum
pcb
Time
 9326  06/04/2026 12:10:42  33.8  31.9  35.3  32.8  64.5  12:10 
 9325  06/04/2026 12:06:00  33.7  31.9  35.2  32.7  64.5  12:06 
 9324  06/04/2026 12:01:17  33.6  31.8  35.3  32.6  64.5  12:01 
 9323  06/04/2026 11:56:35  33.6  31.8  35.2  32.6  64.6  11:56 
 9322  06/04/2026 11:51:52  33.5  31.7  35.4  32.5  64.6  11:51 
 9321  06/04/2026 11:47:10  33.4  31.6  35.5  32.5  64.5  11:47 
 9320  06/04/2026 11:42:28  33.4  31.6  35.5  32.5  64.6  11:42 
 9319  06/04/2026 11:37:46  33.2  31.5  35.2  32.3  64.5  11:37 
 9318  06/04/2026 11:33:03  33.2  31.4  35.0  32.2  64.7  11:33 
 9317  06/04/2026 11:28:21  33.1  31.3  35.0  32.1  64.7  11:28 
 9316  06/04/2026 11:23:39  33.0  31.2  35.4  32.1  64.7  11:23 
 9315  06/04/2026 11:18:56  32.9  31.2  35.2  32.0  64.7  11:18 
 9314  06/04/2026 11:14:14  32.8  31.1  35.2  31.9  64.8  11:14 
 9313  06/04/2026 11:09:31  32.7  31.0  35.1  31.8  64.8  11:09 
 9312  06/04/2026 11:04:49  32.6  30.9  35.3  31.8  64.9  11:04 
 9311  06/04/2026 11:00:08  32.5  30.9  35.0  31.5  64.9  11:00 
 9310  06/04/2026 10:55:26  32.4  30.8  34.8  31.5  65.0  10:55 
 9309  06/04/2026 10:50:44  32.3  30.7  34.7  31.5  65.2  10:50 
 9308  06/04/2026 10:46:02  32.2  30.6  34.5  31.4  65.2  10:46 
 9307  06/04/2026 10:41:20  32.2  30.6  34.5  31.4  65.3  10:41 
 9306  06/04/2026 10:36:37  32.1  30.4  34.5  31.1  65.4  10:36 
 9305  06/04/2026 10:31:57  31.9  30.4  34.5  31.1  65.5  10:31 
 9304  06/04/2026 10:27:14  31.8  30.2  34.3  31.0  65.8  10:27 
 9303  06/04/2026 10:22:33  31.7  30.2  34.1  31.0  65.9  10:22 

Data every 5 minute.


ใช้เวลาประมวลผล 0.00197 วินาที